Location: OHP
(43.9325°N, 5.7154°E)
Time: 05:14:32
(UTC+01:00)

N. Korean satellite - Visible Passes

Search period start: 14 October 2019 00:00
Search period end: 24 October 2019 00:00
Orbit: 455 x 508 km, 97.2° (Epoch: 13 October)

Date Brightness Start Highest point End Pass type
(mag) Time Alt. Az. Time Alt. Az. Time Alt. Az.
15 Oct 9.8 18:33:30 10° SW 18:36:02 19° W 18:38:35 10° NW visible
16 Oct 9.1 05:57:32 10° NE 06:00:37 26° E 06:03:43 10° SSE visible
17 Oct 10.1 05:33:15 10° ENE 05:35:10 14° E 05:37:04 10° ESE visible
18 Oct 10.3 18:52:18 10° WSW 18:53:40 12° W 18:55:02 10° WNW visible
19 Oct 8.0 06:14:43 10° NNE 06:18:11 44° E 06:21:41 10° S visible
19 Oct 9.3 18:25:22 10° SSW 18:28:11 24° W 18:31:01 10° NW visible
20 Oct 9.5 05:49:54 10° NE 05:52:48 22° E 05:55:41 10° SSE visible
21 Oct 10.4 05:26:05 10° ENE 05:27:18 11° E 05:28:31 10° ESE visible
22 Oct 10.0 18:43:45 10° SW 18:45:45 15° W 18:47:48 10° NW visible
23 Oct 8.5 06:06:57 10° NNE 06:10:21 36° E 06:13:46 10° SSE visible
23 Oct 8.8 18:17:14 10° SSW 18:20:17 29° W 18:23:22 10° NNW visible
